| time (UTC) | temp F | wind direction | speed knots | gust knots | rain 1hr in | rain 24hr in | rain mn in | humidity % | barometer mb |
| 20260904170043 | 70 | 285 | 1.7 | 5.2 | 0.00 | 1.98 | 1.78 | 97 | 1015.9 |
| 20260904164540 | 70 | 106 | 0.9 | 1.7 | 0.01 | 1.98 | 1.78 | 97 | 1015.3 |
| 20260904163046 | 69 | 0 | 0.9 | 5.2 | 0.04 | 1.98 | 1.78 | 97 | 1015.6 |
| 20260904161545 | 69 | 194 | 0.9 | 4.3 | 0.10 | 1.98 | 1.78 | 97 | 1015.2 |
| 20260904160050 | 68 | 243 | 2.6 | 6.1 | 0.15 | 1.98 | 1.78 | 97 | 1015.4 |
| 20260904154542 | 68 | 248 | 1.7 | 4.3 | 0.18 | 1.97 | 1.77 | 97 | 1016.0 |
| 20260904153041 | 68 | 144 | 0.9 | 6.1 | 0.17 | 1.94 | 1.74 | 97 | 1016.5 |
| 20260904151544 | 68 | 163 | 2.6 | 6.1 | 0.17 | 1.88 | 1.68 | 97 | 1017.6 |
| 20260904150045 | 68 | 263 | 0.9 | 0.9 | 0.16 | 1.83 | 1.63 | 97 | 1017.9 |
| 20260904144540 | 68 | 0 | 0.0 | 0.9 | 0.15 | 1.79 | 1.59 | 97 | 1017.2 |
| 20260904143041 | 68 | 103 | 0.9 | 0.9 | 0.16 | 1.77 | 1.57 | 97 | 1017.1 |
| 20260904141543 | 68 | 118 | 0.9 | 1.7 | 0.30 | 1.71 | 1.51 | 97 | 1017.4 |
| 20260904140100 | 68 | 108 | 0.0 | 4.3 | 0.60 | 1.67 | 1.47 | 97 | 1017.9 |
| 20260904134543 | 68 | 271 | 0.9 | 2.6 | 0.56 | 1.63 | 1.43 | 97 | 1018.2 |
| 20260904133047 | 67 | 92 | 0.0 | 1.7 | 0.54 | 1.61 | 1.41 | 97 | 1016.8 |
| 20260904131545 | 67 | 5 | 1.7 | 5.2 | 0.32 | 1.39 | 1.19 | 97 | 1017.0 |
| 20260904130050 | 68 | 333 | 1.7 | 3.5 | 0.72 | 0.95 | 0.75 | 97 | 1016.7 |
| 20260904124544 | 68 | 3 | 1.7 | 7.0 | 0.58 | 0.82 | 0.62 | 97 | 1016.8 |
| 20260904123046 | 68 | 117 | 6.1 | 11.3 | 0.40 | 0.63 | 0.43 | 97 | 1016.6 |
| 20260904121547 | 68 | 356 | 2.6 | 5.2 | 0.02 | 0.25 | 0.05 | 97 | 1016.0 |
| 20260904120042 | 68 | 351 | 1.7 | 1.7 | 0.01 | 0.23 | 0.03 | 97 | 1016.2 |
| 20260904114542 | 68 | 75 | 1.7 | 5.2 | 0.01 | 0.23 | 0.03 | 97 | 1016.0 |
| 20260904113051 | 68 | 119 | 1.7 | 5.2 | 0.01 | 0.23 | 0.03 | 97 | 1016.4 |
| 20260904111550 | 67 | 181 | 0.9 | 3.5 | 0.02 | 0.23 | 0.03 | 97 | 1016.4 |
| 20260904110046 | 67 | 234 | 0.0 | 2.6 | 0.02 | 0.22 | 0.02 | 97 | 1016.3 |
| 20260904104542 | 67 | 166 | 0.0 | 1.7 | 0.02 | 0.22 | 0.02 | 97 | 1016.2 |
| 20260904103045 | 67 | 131 | 1.7 | 3.5 | 0.02 | 0.22 | 0.02 | 97 | 1015.8 |
| 20260904101549 | 67 | 0 | 0.0 | 3.5 | 0.01 | 0.21 | 0.01 | 97 | 1015.3 |
| 20260904100045 | 67 | 119 | 2.6 | 4.3 | 0.00 | 0.20 | 0.00 | 97 | 1014.9 |
| 20260904094543 | 67 | 124 | 0.0 | 2.6 | 0.00 | 0.20 | 0.00 | 97 | 1014.8 |
| 20260904093044 | 67 | 0 | 0.0 | 1.7 | 0.00 | 0.20 | 0.00 | 97 | 1014.7 |
| 20260904091542 | 67 | 0 | 0.0 | 1.7 | 0.00 | 0.20 | 0.00 | 97 | 1014.6 |
| 20260904090042 | 67 | 0 | 0.0 | 0.9 | 0.00 | 0.20 | 0.00 | 97 | 1015.2 |
| 20260904084541 | 67 | 0 | 0.0 | 0.9 | 0.00 | 0.20 | 0.00 | 97 | 1015.3 |
| 20260904083044 | 66 | 0 | 0.0 | 0.9 | 0.00 | 0.20 | 0.00 | 97 | 1015.1 |
| 20260904081543 | 66 | 110 | 0.0 | 0.9 | 0.00 | 0.20 | 0.00 | 97 | 1015.2 |
| 20260904080040 | 66 | 0 | 0.0 | 0.9 | 0.00 | 0.20 | 0.00 | 97 | 1015.2 |
| 20260904074550 | 67 | 0 | 0.0 | 0.0 | 0.00 | 0.20 | 0.00 | 97 | 1015.0 |
| 20260904073044 | 67 | 0 | 0.0 | 0.9 | 0.00 | 0.20 | 0.00 | 97 | 1014.9 |
| 20260904071543 | 67 | 0 | 0.0 | 0.0 | 0.00 | 0.20 | 0.00 | 97 | 1015.1 |
| 20260904070048 | 67 | 0 | 0.0 | 0.9 | 0.00 | 0.20 | 0.00 | 97 | 1015.5 |
| 20260904064542 | 67 | 0 | 0.0 | 0.9 | 0.00 | 0.20 | 0.00 | 97 | 1015.9 |
| 20260904063045 | 67 | 0 | 0.0 | 0.0 | 0.00 | 0.20 | 0.00 | 97 | 1015.9 |
| 20260904061546 | 67 | 0 | 0.0 | 0.0 | 0.00 | 0.20 | 0.00 | 97 | 1016.0 |
| 20260904060047 | 67 | 0 | 0.0 | 0.9 | 0.00 | 0.20 | 0.00 | 97 | 1015.9 |
| 20260904054542 | 67 | 0 | 0.0 | 0.0 | 0.00 | 0.20 | 0.00 | 97 | 1016.0 |
| 20260904053045 | 66 | 0 | 0.0 | 0.0 | 0.00 | 0.20 | 0.00 | 97 | 1016.2 |
| 20260904051557 | 67 | 0 | 0.0 | 0.0 | 0.00 | 0.20 | 0.00 | 97 | 1016.0 |
| 20260904050047 | 66 | 0 | 0.0 | 0.9 | 0.00 | 0.20 | 0.00 | 97 | 1016.0 |
| 20260904044541 | 66 | 0 | 0.0 | 0.9 | 0.00 | 0.35 | 0.00 | 97 | 1016.1 |
| 20260904043042 | 66 | 0 | 0.0 | 0.9 | 0.00 | 0.35 | 0.00 | 97 | 1016.2 |
| 20260904041544 | 66 | 0 | 0.0 | 0.0 | 0.00 | 0.35 | 0.00 | 97 | 1015.8 |
| 20260904040045 | 66 | 0 | 0.0 | 0.0 | 0.00 | 0.35 | 0.00 | 97 | 1015.7 |
| 20260904034537 | 66 | 0 | 0.0 | 0.0 | 0.00 | 0.35 | 0.35 | 97 | 1015.5 |
| 20260904033044 | 66 | 0 | 0.0 | 0.0 | 0.00 | 0.35 | 0.35 | 97 | 1015.3 |
| 20260904031541 | 65 | 0 | 0.0 | 0.0 | 0.00 | 0.35 | 0.35 | 97 | 1015.5 |
| 20260904030049 | 65 | 0 | 0.0 | 0.0 | 0.00 | 0.35 | 0.35 | 97 | 1015.2 |
| 20260904024546 | 66 | 0 | 0.0 | 0.0 | 0.00 | 0.35 | 0.35 | 97 | 1015.2 |
| 20260904023041 | 66 | 0 | 0.0 | 0.0 | 0.00 | 0.35 | 0.35 | 97 | 1015.3 |
| 20260904021541 | 66 | 0 | 0.0 | 0.0 | 0.00 | 0.35 | 0.35 | 97 | 1015.3 |
| 20260904020049 | 66 | 0 | 0.0 | 0.0 | 0.00 | 0.35 | 0.35 | 97 | 1015.4 |
| 20260904014602 | 67 | 0 | 0.0 | 0.0 | 0.00 | 0.35 | 0.35 | 97 | 1015.3 |
| 20260904013040 | 67 | 0 | 0.0 | 0.0 | 0.00 | 0.35 | 0.35 | 97 | 1015.2 |
| 20260904011549 | 67 | 0 | 0.0 | 0.0 | 0.00 | 0.35 | 0.35 | 97 | 1015.4 |
| 20260904010052 | 68 | 0 | 0.0 | 0.0 | 0.00 | 0.35 | 0.35 | 97 | 1015.4 |
| 20260904004543 | 68 | 0 | 0.0 | 0.0 | 0.00 | 0.35 | 0.35 | 97 | 1015.3 |
| 20260904003041 | 68 | 0 | 0.0 | 0.0 | 0.00 | 0.35 | 0.35 | 97 | 1015.1 |
| 20260904001542 | 69 | 0 | 0.0 | 0.0 | 0.00 | 0.35 | 0.35 | 97 | 1014.9 |
| 20260904000054 | 69 | 82 | 0.0 | 0.9 | 0.00 | 0.35 | 0.35 | 97 | 1014.8 |
| 20260903234542 | 69 | 0 | 0.0 | 2.6 | 0.00 | 0.35 | 0.35 | 97 | 1014.4 |
| 20260903233043 | 69 | 92 | 0.9 | 3.5 | 0.00 | 0.35 | 0.35 | 97 | 1014.7 |
| 20260903231542 | 69 | 110 | 1.7 | 3.5 | 0.00 | 0.35 | 0.35 | 97 | 1014.7 |
| 20260903230047 | 69 | 198 | 0.9 | 4.3 | 0.00 | 0.35 | 0.35 | 97 | 1014.9 |
| 20260903224542 | 70 | 142 | 0.9 | 4.3 | 0.00 | 0.35 | 0.35 | 97 | 1014.7 |
| 20260903223041 | 70 | 187 | 0.9 | 4.3 | 0.00 | 0.35 | 0.35 | 97 | 1014.8 |
| 20260903221547 | 70 | 94 | 1.7 | 3.5 | 0.00 | 0.35 | 0.35 | 96 | 1015.0 |
| 20260903220052 | 70 | 98 | 1.7 | 4.3 | 0.00 | 0.35 | 0.35 | 96 | 1015.4 |
| 20260903214544 | 70 | 94 | 0.9 | 5.2 | 0.00 | 0.35 | 0.35 | 96 | 1016.0 |
| 20260903213042 | 70 | 0 | 0.0 | 0.9 | 0.00 | 0.35 | 0.35 | 97 | 1015.9 |
| 20260903211547 | 70 | 146 | 2.6 | 5.2 | 0.00 | 0.35 | 0.35 | 97 | 1016.2 |
| 20260903210050 | 70 | 257 | 0.0 | 0.0 | 0.09 | 0.35 | 0.35 | 97 | 1016.1 |
| 20260903204602 | 69 | 335 | 0.0 | 0.0 | 0.18 | 0.35 | 0.35 | 96 | 1015.4 |
| 20260903203041 | 69 | 0 | 0.0 | 0.0 | 0.18 | 0.35 | 0.35 | 96 | 1015.7 |
| 20260903201547 | 69 | 0 | 0.0 | 2.6 | 0.17 | 0.34 | 0.34 | 95 | 1015.2 |
| 20260903200041 | 69 | 0 | 0.0 | 4.3 | 0.08 | 0.25 | 0.25 | 94 | 1016.3 |
| 20260903193142 | 83 | 0 | 0.0 | 1.7 | 0.01 | 0.16 | 0.16 | 80 | 1012.6 |
| 20260903191541 | 86 | 0 | 0.0 | 4.3 | 0.00 | 0.15 | 0.15 | 75 | 1013.0 |
| 20260903190041 | 86 | 238 | 1.7 | 4.3 | 0.00 | 0.15 | 0.15 | 71 | 1013.8 |
| 20260903184543 | 85 | 0 | 0.0 | 1.7 | 0.00 | 0.15 | 0.15 | 71 | 1013.9 |
| 20260903183041 | 84 | 108 | 2.6 | 5.2 | 0.00 | 0.15 | 0.15 | 69 | 1014.4 |
| 20260903181540 | 84 | 0 | 0.9 | 5.2 | 0.00 | 0.15 | 0.15 | 68 | 1014.6 |
| 20260903180040 | 84 | 122 | 0.9 | 5.2 | 0.00 | 0.15 | 0.15 | 68 | 1014.5 |
| 20260903174544 | 83 | 131 | 1.7 | 7.0 | 0.00 | 0.15 | 0.15 | 68 | 1014.5 |
| 20260903173042 | 82 | 0 | 0.9 | 5.2 | 0.00 | 0.15 | 0.15 | 72 | 1014.6 |
| 20260903171545 | 81 | 124 | 0.9 | 4.3 | 0.00 | 0.15 | 0.15 | 74 | 1014.6 |